[Date Prev][Date Next][Thread Prev][Thread Next] - [Date Index][Thread Index][Author Index]
2 Line ISS Keps 8-27
- Subject: [sarex] 2 Line ISS Keps 8-27
- From: "Dave Larsen PhD" <doc@xxxxxxxxxxx>
- Date: Mon, 27 Aug 2001 02:51:24 -0700
ISS
1 25544U 98067A 01239.13912037 .00032424 00000-0 43964-3 0 3865
2 25544 51.6413 91.3333 0008227 40.2989 91.7293 15.57323116158150
----
Via the sarex mailing list at AMSAT.ORG courtesy of AMSAT-NA.
To unsubscribe, send "unsubscribe sarex" to Majordomo@amsat.org
AMSAT Home